Time,TemperatureF,DewpointF,PressureIn,WindDirection,WindDirectionDegrees,WindSpeedMPH,WindSpeedGustMPH,Humidity,HourlyPrecipIn,Conditions,Clouds,dailyrainin,SoftwareType,DateUTC
2013-02-14 00:02:00,26.0,23.0,-100.00,West,275,4.0,7.0,88,0.00,,,-99.99,,2013-02-14 05:02:00,
2013-02-14 00:11:00,26.0,23.0,-100.00,West,270,5.0,7.0,88,0.00,,,-99.99,,2013-02-14 05:11:00,
2013-02-14 00:22:00,26.0,23.0,-100.00,West,265,4.0,7.0,87,0.00,,,-99.99,,2013-02-14 05:22:00,
2013-02-14 00:32:00,26.0,23.0,-100.00,WSW,250,6.0,8.0,88,0.00,,,-99.99,,2013-02-14 05:32:00,
2013-02-14 00:42:00,26.0,23.0,-100.00,WSW,250,5.0,7.0,87,0.00,,,-99.99,,2013-02-14 05:42:00,
2013-02-14 00:52:00,26.0,23.0,-100.00,SW,235,6.0,8.0,88,0.00,,,-99.99,,2013-02-14 05:52:00,
2013-02-14 01:02:00,26.0,23.0,-100.00,WSW,250,5.0,7.0,88,0.00,,,-99.99,,2013-02-14 06:02:00,
2013-02-14 01:11:00,26.0,23.0,-100.00,WSW,245,5.0,7.0,88,0.00,,,-99.99,,2013-02-14 06:11:00,
2013-02-14 01:21:00,26.0,23.0,-100.00,WSW,250,5.0,9.0,88,0.00,,,-99.99,,2013-02-14 06:21:00,
2013-02-14 01:32:00,26.0,23.0,-100.00,WSW,250,6.0,9.0,89,0.00,,,-99.99,,2013-02-14 06:32:00,
2013-02-14 01:42:00,26.0,23.0,-100.00,WSW,245,6.0,8.0,89,0.00,,,-99.99,,2013-02-14 06:42:00,
2013-02-14 01:51:00,25.0,23.0,-100.00,WSW,250,3.0,7.0,89,0.00,,,-99.99,,2013-02-14 06:51:00,
2013-02-14 02:01:00,25.0,23.0,-100.00,WSW,245,4.0,6.0,89,0.00,,,-99.99,,2013-02-14 07:01:00,
2013-02-14 02:11:00,25.0,22.0,-100.00,SW,225,3.0,6.0,89,0.00,,,-99.99,,2013-02-14 07:11:00,
2013-02-14 02:21:00,25.0,22.0,-100.00,SW,235,4.0,9.0,90,0.00,,,-99.99,,2013-02-14 07:21:00,
2013-02-14 02:32:00,25.0,23.0,-100.00,WSW,245,6.0,9.0,90,0.00,,,-99.99,,2013-02-14 07:32:00,
2013-02-14 02:42:00,25.0,22.0,-100.00,South,180,3.0,7.0,90,0.00,,,-99.99,,2013-02-14 07:42:00,
2013-02-14 02:51:00,25.0,23.0,-100.00,SW,235,4.0,7.0,91,0.00,,,-99.99,,2013-02-14 07:51:00,
2013-02-14 03:01:00,25.0,23.0,-100.00,SW,225,6.0,10.0,91,0.00,,,-99.99,,2013-02-14 08:01:00,
2013-02-14 03:11:00,25.0,23.0,-100.00,SW,235,7.0,9.0,91,0.00,,,-99.99,,2013-02-14 08:11:00,
2013-02-14 03:21:00,25.0,23.0,-100.00,SW,225,3.0,9.0,91,0.00,,,-99.99,,2013-02-14 08:21:00,
2013-02-14 03:32:00,25.0,23.0,-100.00,SW,220,4.0,7.0,91,0.00,,,-99.99,,2013-02-14 08:32:00,
2013-02-14 03:43:00,25.0,23.0,-100.00,SW,230,4.0,6.0,91,0.00,,,-99.99,,2013-02-14 08:43:00,
2013-02-14 03:52:00,25.0,23.0,-100.00,SW,225,4.0,9.0,91,0.00,,,-99.99,,2013-02-14 08:52:00,
2013-02-14 04:02:00,25.0,23.0,-100.00,SW,230,7.0,10.0,92,0.00,,,-99.99,,2013-02-14 09:02:00,
2013-02-14 04:11:00,25.0,23.0,-100.00,SW,235,7.0,12.0,92,0.00,,,-99.99,,2013-02-14 09:11:00,
2013-02-14 04:21:00,26.0,24.0,-100.00,SW,235,4.0,10.0,92,0.00,,,-99.99,,2013-02-14 09:21:00,
2013-02-14 04:32:00,26.0,24.0,-100.00,SSW,210,4.0,11.0,92,0.00,,,-99.99,,2013-02-14 09:32:00,
2013-02-14 04:42:00,26.0,24.0,-100.00,SW,220,3.0,7.0,92,0.00,,,-99.99,,2013-02-14 09:42:00,
2013-02-14 04:51:00,26.0,24.0,-100.00,SW,215,4.0,7.0,92,0.00,,,-99.99,,2013-02-14 09:51:00,
2013-02-14 05:02:00,27.0,25.0,-100.00,SSW,205,3.0,7.0,92,0.00,,,-99.99,,2013-02-14 10:02:00,
2013-02-14 05:11:00,27.0,25.0,-100.00,SW,220,4.0,9.0,92,0.00,,,-99.99,,2013-02-14 10:11:00,
2013-02-14 05:21:00,27.0,25.0,-100.00,SW,220,4.0,8.0,92,0.00,,,-99.99,,2013-02-14 10:21:00,
2013-02-14 05:32:00,27.0,25.0,-100.00,SSW,200,4.0,9.0,92,0.00,,,-99.99,,2013-02-14 10:32:00,
2013-02-14 05:42:00,27.0,25.0,-100.00,SW,220,4.0,9.0,92,0.00,,,-99.99,,2013-02-14 10:42:00,
2013-02-14 05:52:00,28.0,26.0,-100.00,WSW,240,4.0,6.0,92,0.00,,,-99.99,,2013-02-14 10:52:00,
2013-02-14 06:02:00,28.0,26.0,-100.00,SW,220,5.0,9.0,91,0.00,,,-99.99,,2013-02-14 11:02:00,
2013-02-14 06:11:00,28.0,26.0,-100.00,SSW,200,4.0,8.0,91,0.00,,,-99.99,,2013-02-14 11:11:00,
2013-02-14 06:21:00,28.0,26.0,-100.00,SSW,205,5.0,9.0,91,0.00,,,-99.99,,2013-02-14 11:21:00,
2013-02-14 06:32:00,28.0,26.0,-100.00,SW,220,4.0,9.0,91,0.00,,,-99.99,,2013-02-14 11:32:00,
2013-02-14 06:42:00,28.0,26.0,-100.00,SW,215,6.0,9.0,91,0.00,,,-99.99,,2013-02-14 11:42:00,
2013-02-14 06:52:00,28.0,26.0,-100.00,SW,220,6.0,9.0,91,0.00,,,-99.99,,2013-02-14 11:52:00,
2013-02-14 07:02:00,29.0,26.0,-100.00,SSW,200,5.0,9.0,91,0.00,,,-99.99,,2013-02-14 12:02:00,
2013-02-14 07:12:00,29.0,26.0,-100.00,SW,225,3.0,9.0,90,0.00,,,-99.99,,2013-02-14 12:12:00,
2013-02-14 07:22:00,29.0,27.0,-100.00,SW,230,6.0,11.0,90,0.00,,,-99.99,,2013-02-14 12:22:00,
2013-02-14 07:32:00,29.0,27.0,-100.00,SSW,200,3.0,9.0,90,0.00,,,-99.99,,2013-02-14 12:32:00,
2013-02-14 07:42:00,29.0,27.0,-100.00,SW,225,4.0,11.0,90,0.00,,,-99.99,,2013-02-14 12:42:00,
2013-02-14 07:53:00,29.0,27.0,-100.00,SW,235,7.0,14.0,90,0.00,,,-99.99,,2013-02-14 12:53:00,
2013-02-14 08:02:00,29.0,27.0,-100.00,SW,225,6.0,12.0,90,0.00,,,-99.99,,2013-02-14 13:02:00,
2013-02-14 08:11:00,30.0,27.0,-100.00,SSW,210,3.0,10.0,90,0.00,,,-99.99,,2013-02-14 13:11:00,
2013-02-14 08:21:00,30.0,27.0,-100.00,SSW,200,4.0,9.0,90,0.00,,,-99.99,,2013-02-14 13:21:00,
2013-02-14 08:32:00,30.0,28.0,-100.00,SSW,200,6.0,10.0,90,0.00,,,-99.99,,2013-02-14 13:32:00,
2013-02-14 08:42:00,30.0,28.0,-100.00,South,175,4.0,10.0,90,0.00,,,-99.99,,2013-02-14 13:42:00,
2013-02-14 08:51:00,30.0,28.0,-100.00,SSW,195,5.0,9.0,90,0.00,,,-99.99,,2013-02-14 13:51:00,
2013-02-14 09:01:00,30.0,28.0,-100.00,South,175,4.0,9.0,90,0.00,,,-99.99,,2013-02-14 14:01:00,
2013-02-14 09:11:00,30.0,28.0,-100.00,SSW,200,6.0,9.0,90,0.00,,,-99.99,,2013-02-14 14:11:00,
2013-02-14 09:21:00,31.0,28.0,-100.00,South,185,4.0,11.0,90,0.00,,,-99.99,,2013-02-14 14:21:00,
2013-02-14 09:32:00,31.0,29.0,-100.00,SSW,205,4.0,9.0,90,0.00,,,-99.99,,2013-02-14 14:32:00,
2013-02-14 09:42:00,31.0,29.0,-100.00,SSW,195,5.0,13.0,90,0.00,,,-99.99,,2013-02-14 14:42:00,
2013-02-14 09:52:00,31.0,29.0,-100.00,SW,225,6.0,9.0,90,0.00,,,-99.99,,2013-02-14 14:52:00,
2013-02-14 10:02:00,31.0,29.0,-100.00,SSW,205,5.0,12.0,90,0.00,,,-99.99,,2013-02-14 15:02:00,
2013-02-14 10:11:00,32.0,29.0,-100.00,SW,220,5.0,10.0,90,0.00,,,-99.99,,2013-02-14 15:11:00,
2013-02-14 10:21:00,32.0,29.0,-100.00,SW,215,6.0,14.0,89,0.00,,,-99.99,,2013-02-14 15:21:00,
2013-02-14 10:32:00,32.0,29.0,-100.00,SSW,200,6.0,9.0,89,0.00,,,-99.99,,2013-02-14 15:32:00,
2013-02-14 10:42:00,32.0,29.0,-100.00,SSW,210,4.0,9.0,89,0.00,,,-99.99,,2013-02-14 15:42:00,
2013-02-14 10:52:00,32.0,29.0,-100.00,SW,225,4.0,12.0,89,0.00,,,-99.99,,2013-02-14 15:52:00,
2013-02-14 11:02:00,33.0,30.0,-100.00,SW,215,5.0,11.0,89,0.00,,,-99.99,,2013-02-14 16:02:00,
2013-02-14 11:11:00,33.0,30.0,-100.00,SSW,210,6.0,13.0,89,0.00,,,-99.99,,2013-02-14 16:11:00,
2013-02-14 11:21:00,33.0,30.0,-100.00,SSW,200,6.0,13.0,88,0.00,,,-99.99,,2013-02-14 16:21:00,
2013-02-14 11:32:00,33.0,30.0,-100.00,SW,225,8.0,14.0,88,0.00,,,-99.99,,2013-02-14 16:32:00,
2013-02-14 11:41:00,33.0,30.0,-100.00,SW,220,7.0,14.0,88,0.00,,,-99.99,,2013-02-14 16:41:00,
2013-02-14 11:51:00,33.0,30.0,-100.00,SW,220,5.0,14.0,87,0.00,,,-99.99,,2013-02-14 16:51:00,
2013-02-14 12:01:00,33.0,30.0,-100.00,SW,215,7.0,14.0,87,0.00,,,-99.99,,2013-02-14 17:01:00,
2013-02-14 12:11:00,33.0,30.0,-100.00,SW,220,7.0,12.0,87,0.00,,,-99.99,,2013-02-14 17:11:00,
2013-02-14 12:21:00,34.0,30.0,-100.00,SSW,205,6.0,12.0,87,0.00,,,-99.99,,2013-02-14 17:21:00,
2013-02-14 12:32:00,34.0,30.0,-100.00,SSW,205,7.0,17.0,85,0.00,,,-99.99,,2013-02-14 17:32:00,
2013-02-14 12:42:00,34.0,30.0,-100.00,SSW,200,7.0,14.0,85,0.00,,,-99.99,,2013-02-14 17:42:00,
2013-02-14 12:52:00,34.0,30.0,-100.00,SSW,200,8.0,14.0,85,0.00,,,-99.99,,2013-02-14 17:52:00,
2013-02-14 13:01:00,35.0,31.0,-100.00,SW,215,9.0,16.0,85,0.00,,,-99.99,,2013-02-14 18:01:00,
2013-02-14 13:11:00,35.0,31.0,-100.00,SSW,205,7.0,13.0,83,0.00,,,-99.99,,2013-02-14 18:11:00,
2013-02-14 13:23:00,35.0,30.0,-100.00,SSW,205,9.0,19.0,81,0.00,,,-99.99,,2013-02-14 18:23:00,
2013-02-14 13:32:00,35.0,31.0,-100.00,SW,225,6.0,17.0,83,0.00,,,-99.99,,2013-02-14 18:32:00,
2013-02-14 13:42:00,35.0,30.0,-100.00,SW,220,9.0,18.0,83,0.00,,,-99.99,,2013-02-14 18:42:00,
2013-02-14 13:51:00,35.0,30.0,-100.00,SW,235,9.0,16.0,83,0.00,,,-99.99,,2013-02-14 18:51:00,
2013-02-14 14:02:00,35.0,30.0,-100.00,SW,220,9.0,19.0,83,0.00,,,-99.99,,2013-02-14 19:02:00,
2013-02-14 14:11:00,35.0,30.0,-100.00,SW,225,9.0,17.0,83,0.00,,,-99.99,,2013-02-14 19:11:00,
2013-02-14 14:21:00,35.0,30.0,-100.00,SW,215,8.0,17.0,83,0.00,,,-99.99,,2013-02-14 19:21:00,
2013-02-14 14:32:00,35.0,30.0,-100.00,SW,225,10.0,16.0,83,0.00,,,-99.99,,2013-02-14 19:32:00,
2013-02-14 14:42:00,35.0,31.0,-100.00,SSW,200,6.0,16.0,81,0.00,,,-99.99,,2013-02-14 19:42:00,
2013-02-14 14:51:00,36.0,31.0,-100.00,SSW,210,5.0,11.0,82,0.00,,,-99.99,,2013-02-14 19:51:00,
2013-02-14 15:01:00,35.0,31.0,-100.00,SW,220,7.0,16.0,82,0.00,,,-99.99,,2013-02-14 20:01:00,
2013-02-14 15:11:00,36.0,31.0,-100.00,SW,220,6.0,11.0,82,0.00,,,-99.99,,2013-02-14 20:11:00,
2013-02-14 15:21:00,35.0,31.0,-100.00,SW,220,6.0,15.0,82,0.00,,,-99.99,,2013-02-14 20:21:00,
2013-02-14 15:32:00,35.0,30.0,-100.00,SSW,195,11.0,17.0,81,0.00,,,-99.99,,2013-02-14 20:32:00,
2013-02-14 15:42:00,35.0,30.0,-100.00,SW,230,11.0,17.0,81,0.00,,,-99.99,,2013-02-14 20:42:00,
2013-02-14 15:52:00,36.0,30.0,-100.00,SW,235,7.0,26.0,81,0.00,,,-99.99,,2013-02-14 20:52:00,
2013-02-14 16:02:00,36.0,30.0,-100.00,SW,215,12.0,22.0,81,0.00,,,-99.99,,2013-02-14 21:02:00,
2013-02-14 16:11:00,36.0,31.0,-100.00,WSW,245,10.0,16.0,81,0.00,,,-99.99,,2013-02-14 21:11:00,
2013-02-14 16:21:00,36.0,31.0,-100.00,SW,220,7.0,22.0,82,0.00,,,-99.99,,2013-02-14 21:21:00,
2013-02-14 16:32:00,36.0,31.0,-100.00,SW,215,9.0,16.0,81,0.00,,,-99.99,,2013-02-14 21:32:00,
2013-02-14 16:42:00,37.0,31.0,-100.00,WSW,250,6.0,18.0,81,0.00,,,-99.99,,2013-02-14 21:42:00,
2013-02-14 16:51:00,37.0,31.0,-100.00,SW,235,6.0,12.0,81,0.00,,,-99.99,,2013-02-14 21:51:00,
2013-02-14 17:02:00,37.0,31.0,-100.00,SW,220,6.0,15.0,80,0.00,,,-99.99,,2013-02-14 22:02:00,
2013-02-14 17:11:00,37.0,31.0,-100.00,SW,220,5.0,10.0,80,0.00,,,-99.99,,2013-02-14 22:11:00,
2013-02-14 17:21:00,37.0,32.0,-100.00,SW,225,5.0,11.0,80,0.00,,,-99.99,,2013-02-14 22:21:00,
2013-02-14 17:32:00,37.0,32.0,-100.00,SW,235,7.0,12.0,79,0.00,,,-99.99,,2013-02-14 22:32:00,
2013-02-14 17:42:00,37.0,32.0,-100.00,SW,220,5.0,9.0,80,0.00,,,-99.99,,2013-02-14 22:42:00,
2013-02-14 17:51:00,37.0,32.0,-100.00,SW,225,5.0,9.0,80,0.00,,,-99.99,,2013-02-14 22:51:00,
2013-02-14 18:01:00,37.0,32.0,-100.00,SW,220,2.0,9.0,80,0.00,,,-99.99,,2013-02-14 23:01:00,
2013-02-14 18:11:00,37.0,32.0,-100.00,SW,235,4.0,7.0,80,0.00,,,-99.99,,2013-02-14 23:11:00,
2013-02-14 18:21:00,37.0,32.0,-100.00,SSW,195,3.0,6.0,80,0.00,,,-99.99,,2013-02-14 23:21:00,
2013-02-14 18:32:00,37.0,32.0,-100.00,WSW,250,2.0,6.0,80,0.00,,,-99.99,,2013-02-14 23:32:00,
2013-02-14 18:42:00,37.0,32.0,-100.00,WSW,240,5.0,8.0,80,0.00,,,-99.99,,2013-02-14 23:42:00,
2013-02-14 18:52:00,37.0,32.0,-100.00,West,275,6.0,9.0,80,0.00,,,-99.99,,2013-02-14 23:52:00,
2013-02-14 19:01:00,38.0,32.0,-100.00,WSW,245,6.0,9.0,80,0.00,,,-99.99,,2013-02-15 00:01:00,
2013-02-14 19:11:00,38.0,32.0,-100.00,WSW,240,4.0,10.0,79,0.00,,,-99.99,,2013-02-15 00:11:00,
2013-02-14 19:22:00,38.0,32.0,-100.00,SW,230,6.0,7.0,80,0.00,,,-99.99,,2013-02-15 00:22:00,
2013-02-14 19:32:00,38.0,32.0,-100.00,SW,225,4.0,9.0,80,0.00,,,-99.99,,2013-02-15 00:32:00,
2013-02-14 19:42:00,38.0,32.0,-100.00,SW,220,2.0,4.0,80,0.00,,,-99.99,,2013-02-15 00:42:00,
2013-02-14 19:51:00,37.0,32.0,-100.00,South,185,2.0,5.0,80,0.00,,,-99.99,,2013-02-15 00:51:00,
2013-02-14 20:02:00,37.0,32.0,-100.00,SW,215,3.0,6.0,81,0.00,,,-99.99,,2013-02-15 01:02:00,
2013-02-14 20:11:00,37.0,32.0,-100.00,South,185,3.0,4.0,81,0.00,,,-99.99,,2013-02-15 01:11:00,
2013-02-14 20:21:00,38.0,32.0,-100.00,South,185,2.0,5.0,80,0.00,,,-99.99,,2013-02-15 01:21:00,
2013-02-14 20:32:00,38.0,32.0,-100.00,South,180,3.0,6.0,80,0.00,,,-99.99,,2013-02-15 01:32:00,
2013-02-14 20:41:00,38.0,32.0,-100.00,SW,215,3.0,7.0,79,0.00,,,-99.99,,2013-02-15 01:41:00,
2013-02-14 20:51:00,38.0,32.0,-100.00,SW,235,7.0,17.0,77,0.00,,,-99.99,,2013-02-15 01:51:00,
2013-02-14 21:01:00,40.0,32.0,-100.00,WSW,250,9.0,14.0,73,0.00,,,-99.99,,2013-02-15 02:01:00,
2013-02-14 21:11:00,38.0,32.0,-100.00,WSW,245,6.0,11.0,76,0.00,,,-99.99,,2013-02-15 02:11:00,
2013-02-14 21:21:00,38.0,32.0,-100.00,WSW,240,6.0,12.0,77,0.00,,,-99.99,,2013-02-15 02:21:00,
2013-02-14 21:32:00,38.0,32.0,-100.00,SW,230,7.0,12.0,77,0.00,,,-99.99,,2013-02-15 02:32:00,
2013-02-14 21:41:00,39.0,32.0,-100.00,SW,230,9.0,13.0,76,0.00,,,-99.99,,2013-02-15 02:41:00,
2013-02-14 21:52:00,39.0,32.0,-100.00,SW,215,7.0,11.0,77,0.00,,,-99.99,,2013-02-15 02:52:00,
2013-02-14 22:02:00,39.0,33.0,-100.00,WSW,240,9.0,12.0,76,0.00,,,-99.99,,2013-02-15 03:02:00,
2013-02-14 22:11:00,39.0,33.0,-100.00,SW,230,7.0,11.0,77,0.00,,,-99.99,,2013-02-15 03:11:00,
2013-02-14 22:22:00,39.0,33.0,-100.00,WSW,240,11.0,16.0,76,0.00,,,-99.99,,2013-02-15 03:22:00,
2013-02-14 22:32:00,40.0,32.0,-100.00,West,260,11.0,19.0,75,0.00,,,-99.99,,2013-02-15 03:32:00,
2013-02-14 22:42:00,39.0,32.0,-100.00,WSW,255,10.0,16.0,76,0.00,,,-99.99,,2013-02-15 03:42:00,
2013-02-14 22:51:00,39.0,32.0,-100.00,West,265,6.0,12.0,77,0.00,,,-99.99,,2013-02-15 03:51:00,
2013-02-14 23:01:00,39.0,32.0,-100.00,WSW,255,9.0,14.0,77,0.00,,,-99.99,,2013-02-15 04:01:00,
2013-02-14 23:11:00,38.0,33.0,-100.00,WNW,285,8.0,17.0,79,0.00,,,-99.99,,2013-02-15 04:11:00,
2013-02-14 23:21:00,38.0,32.0,-100.00,WNW,295,11.0,19.0,79,0.00,,,-99.99,,2013-02-15 04:21:00,
2013-02-14 23:32:00,38.0,32.0,-100.00,West,275,9.0,16.0,79,0.00,,,-99.99,,2013-02-15 04:32:00,
2013-02-14 23:42:00,38.0,32.0,-100.00,West,275,12.0,18.0,79,0.00,,,-99.99,,2013-02-15 04:42:00,
2013-02-14 23:52:00,37.0,32.0,-100.00,West,280,9.0,16.0,79,0.00,,,-99.99,,2013-02-15 04:52:00,